Location: Newark
(45.2500°N, 7.5833°E)
Time: 04:53:41
(UTC+00:00)

Tiros 1 despin weight - Pass Details

Date: 03 February 2020
Orbit: 594 x 642 km, 48.2° (Epoch: 19 February)

Event Time Altitude Azimuth Distance (km) Brightness Sun altitude
Rises 07:02:04 0° 220° (SW) 2,821 ? 1.3°
Reaches altitude 10° 07:04:28 10° 212° (SSW) 1,926 ? 1.7°
Maximum altitude 07:08:31 36° 145° (SE) 953 ? 2.4°
Drops below altitude 10° 07:12:37 10° 79° (E) 1,955 ? 3.0°
Sets 07:15:03 0° 71° (ENE) 2,869 ? 3.4°
